| time (UTC) | temp F | wind direction | speed knots | gust knots | rain 1hr in | rain 24hr in | rain mn in | humidity % | barometer mb |
| 20260507151029 | 56 | 270 | 3.5 | 7.0 | 0.00 | 0.06 | 0.00 | 52 | 1012.2 |
| 20260507150531 | 55 | 2 | 2.6 | 6.1 | 0.00 | 0.06 | 0.00 | 49 | 1012.2 |
| 20260507150044 | 55 | 245 | 3.5 | 8.7 | 0.00 | 0.06 | 0.00 | 51 | 1012.3 |
| 20260507145528 | 55 | 297 | 2.6 | 9.6 | 0.00 | 0.13 | 0.00 | 50 | 1012.3 |
| 20260507145028 | 54 | 356 | 2.6 | 9.6 | 0.00 | 0.13 | 0.00 | 52 | 1012.4 |
| 20260507144609 | 54 | 323 | 6.1 | 9.6 | 0.00 | 0.13 | 0.00 | 48 | 1012.5 |
| 20260507144030 | 54 | 285 | 2.6 | 7.0 | 0.00 | 0.13 | 0.00 | 51 | 1012.4 |
| 20260507143528 | 54 | 16 | 5.2 | 8.7 | 0.00 | 0.13 | 0.00 | 47 | 1012.5 |
| 20260507143045 | 54 | 334 | 5.2 | 8.7 | 0.00 | 0.13 | 0.00 | 49 | 1012.7 |
| 20260507142528 | 54 | 336 | 3.5 | 6.1 | 0.00 | 0.13 | 0.00 | 49 | 1012.7 |
| 20260507142031 | 53 | 336 | 2.6 | 6.1 | 0.00 | 0.13 | 0.00 | 49 | 1012.8 |
| 20260507141543 | 53 | 307 | 1.7 | 6.1 | 0.00 | 0.13 | 0.00 | 49 | 1012.8 |
| 20260507141031 | 53 | 354 | 1.7 | 6.1 | 0.00 | 0.13 | 0.00 | 48 | 1012.9 |
| 20260507140534 | 53 | 286 | 2.6 | 5.2 | 0.00 | 0.13 | 0.00 | 50 | 1012.9 |
| 20260507140039 | 53 | 7 | 2.6 | 6.1 | 0.00 | 0.13 | 0.00 | 49 | 1012.9 |
| 20260507135528 | 53 | 354 | 1.7 | 6.1 | 0.00 | 0.19 | 0.00 | 52 | 1013.1 |
| 20260507135028 | 52 | 311 | 2.6 | 6.1 | 0.00 | 0.19 | 0.00 | 52 | 1013.2 |
| 20260507134548 | 52 | 317 | 2.6 | 4.3 | 0.00 | 0.19 | 0.00 | 49 | 1013.3 |
| 20260507134031 | 52 | 316 | 1.7 | 5.2 | 0.00 | 0.19 | 0.00 | 56 | 1013.4 |
| 20260507133528 | 52 | 342 | 2.6 | 5.2 | 0.00 | 0.19 | 0.00 | 52 | 1013.4 |
| 20260507133045 | 52 | 301 | 2.6 | 5.2 | 0.00 | 0.19 | 0.00 | 53 | 1013.4 |
| 20260507132527 | 52 | 306 | 1.7 | 5.2 | 0.00 | 0.19 | 0.00 | 53 | 1013.3 |
| 20260507132030 | 52 | 323 | 1.7 | 6.1 | 0.00 | 0.19 | 0.00 | 57 | 1013.2 |
| 20260507131544 | 51 | 314 | 1.7 | 7.8 | 0.00 | 0.19 | 0.00 | 57 | 1013.5 |
| 20260507131028 | 51 | 327 | 3.5 | 7.8 | 0.00 | 0.19 | 0.00 | 53 | 1013.5 |
| 20260507130530 | 51 | 289 | 3.5 | 7.0 | 0.00 | 0.19 | 0.00 | 56 | 1013.5 |
| 20260507130041 | 51 | 6 | 4.3 | 7.8 | 0.00 | 0.19 | 0.00 | 54 | 1013.5 |
| 20260507125528 | 51 | 293 | 4.3 | 7.8 | 0.00 | 0.22 | 0.00 | 52 | 1013.3 |
| 20260507125033 | 51 | 329 | 4.3 | 7.8 | 0.00 | 0.22 | 0.00 | 54 | 1013.4 |
| 20260507124545 | 51 | 327 | 2.6 | 7.8 | 0.00 | 0.22 | 0.00 | 57 | 1013.4 |
| 20260507124033 | 51 | 302 | 2.6 | 7.0 | 0.00 | 0.22 | 0.00 | 57 | 1013.3 |
| 20260507123528 | 51 | 332 | 4.3 | 7.0 | 0.00 | 0.22 | 0.00 | 54 | 1013.2 |
| 20260507123048 | 51 | 322 | 3.5 | 7.0 | 0.00 | 0.22 | 0.00 | 57 | 1013.3 |
| 20260507122527 | 51 | 289 | 3.5 | 6.1 | 0.00 | 0.22 | 0.00 | 58 | 1013.2 |
| 20260507122030 | 51 | 300 | 2.6 | 6.1 | 0.00 | 0.22 | 0.00 | 61 | 1013.1 |
| 20260507121545 | 50 | 325 | 3.5 | 6.1 | 0.00 | 0.22 | 0.00 | 62 | 1013.1 |
| 20260507121031 | 50 | 332 | 1.7 | 3.5 | 0.00 | 0.22 | 0.00 | 62 | 1013.1 |
| 20260507120532 | 50 | 332 | 1.7 | 3.5 | 0.00 | 0.22 | 0.00 | 60 | 1013.3 |
| 20260507120043 | 49 | 296 | 0.9 | 4.3 | 0.00 | 0.22 | 0.00 | 61 | 1013.3 |
| 20260507115530 | 49 | 291 | 0.9 | 4.3 | 0.00 | 0.24 | 0.00 | 61 | 1013.3 |
| 20260507115028 | 49 | 282 | 1.7 | 4.3 | 0.00 | 0.24 | 0.00 | 62 | 1013.2 |
| 20260507114552 | 49 | 276 | 0.9 | 2.6 | 0.00 | 0.24 | 0.00 | 64 | 1013.1 |
| 20260507114030 | 49 | 302 | 0.9 | 2.6 | 0.00 | 0.24 | 0.00 | 62 | 1013.2 |
| 20260507113527 | 49 | 319 | 1.7 | 2.6 | 0.00 | 0.24 | 0.00 | 64 | 1013.4 |
| 20260507113036 | 49 | 312 | 1.7 | 2.6 | 0.00 | 0.24 | 0.00 | 65 | 1013.3 |
| 20260507112530 | 49 | 309 | 0.9 | 3.5 | 0.00 | 0.24 | 0.00 | 64 | 1013.3 |
| 20260507112031 | 49 | 292 | 0.9 | 3.5 | 0.00 | 0.24 | 0.00 | 65 | 1013.2 |
| 20260507111550 | 49 | 316 | 0.9 | 3.5 | 0.00 | 0.24 | 0.00 | 63 | 1013.2 |
| 20260507111033 | 49 | 359 | 1.7 | 4.3 | 0.00 | 0.24 | 0.00 | 64 | 1012.9 |
| 20260507110531 | 49 | 311 | 2.6 | 4.3 | 0.00 | 0.24 | 0.00 | 63 | 1013.0 |
| 20260507110045 | 49 | 329 | 2.6 | 4.3 | 0.00 | 0.24 | 0.00 | 63 | 1012.8 |
| 20260507105529 | 49 | 6 | 1.7 | 3.5 | 0.00 | 0.26 | 0.00 | 65 | 1012.7 |
| 20260507105031 | 48 | 330 | 1.7 | 2.6 | 0.00 | 0.26 | 0.00 | 65 | 1012.7 |
| 20260507104544 | 49 | 0 | 0.0 | 0.0 | 0.00 | 0.26 | 0.00 | 73 | 1012.7 |
| 20260507104027 | 49 | 0 | 0.0 | 2.6 | 0.00 | 0.26 | 0.00 | 72 | 1012.6 |
| 20260507103532 | 48 | 0 | 0.9 | 2.6 | 0.00 | 0.26 | 0.00 | 68 | 1012.5 |
| 20260507103043 | 48 | 0 | 0.0 | 0.0 | 0.00 | 0.26 | 0.00 | 66 | 1012.5 |
| 20260507102530 | 48 | 0 | 0.0 | 0.9 | 0.00 | 0.26 | 0.00 | 66 | 1012.3 |
| 20260507102029 | 48 | 0 | 0.0 | 0.9 | 0.00 | 0.26 | 0.00 | 67 | 1012.1 |
| 20260507101549 | 48 | 234 | 0.0 | 0.9 | 0.00 | 0.26 | 0.00 | 66 | 1012.1 |
| 20260507101031 | 48 | 0 | 0.0 | 0.0 | 0.00 | 0.26 | 0.00 | 67 | 1012.0 |
| 20260507100530 | 49 | 0 | 0.0 | 0.0 | 0.00 | 0.26 | 0.00 | 70 | 1012.1 |
| 20260507100048 | 49 | 0 | 0.0 | 0.0 | 0.00 | 0.26 | 0.00 | 67 | 1012.0 |
| 20260507095530 | 49 | 0 | 0.0 | 0.0 | 0.00 | 0.26 | 0.00 | 66 | 1012.0 |
| 20260507095030 | 49 | 0 | 0.0 | 1.7 | 0.00 | 0.26 | 0.00 | 64 | 1012.0 |
| 20260507094547 | 49 | 0 | 0.0 | 2.6 | 0.00 | 0.26 | 0.00 | 66 | 1011.9 |
| 20260507094030 | 49 | 354 | 0.9 | 2.6 | 0.00 | 0.26 | 0.00 | 61 | 1012.1 |
| 20260507093530 | 49 | 345 | 0.0 | 3.5 | 0.00 | 0.26 | 0.00 | 62 | 1012.0 |
| 20260507093046 | 49 | 349 | 0.9 | 3.5 | 0.00 | 0.26 | 0.00 | 60 | 1012.0 |
| 20260507092531 | 49 | 20 | 0.0 | 1.7 | 0.00 | 0.26 | 0.00 | 60 | 1012.1 |
| 20260507092030 | 50 | 0 | 0.0 | 3.5 | 0.00 | 0.26 | 0.00 | 59 | 1012.0 |
| 20260507091542 | 50 | 337 | 1.7 | 4.3 | 0.00 | 0.26 | 0.00 | 58 | 1011.9 |
| 20260507091032 | 50 | 328 | 1.7 | 6.1 | 0.00 | 0.26 | 0.00 | 57 | 1011.9 |
| 20260507090534 | 50 | 332 | 1.7 | 6.1 | 0.00 | 0.26 | 0.00 | 57 | 1011.9 |
| 20260507090043 | 50 | 339 | 3.5 | 6.1 | 0.00 | 0.26 | 0.00 | 56 | 1011.9 |
| 20260507085530 | 50 | 9 | 4.3 | 9.6 | 0.00 | 0.26 | 0.00 | 57 | 1011.8 |
| 20260507085031 | 50 | 331 | 4.3 | 9.6 | 0.00 | 0.26 | 0.00 | 57 | 1011.9 |
| 20260507084546 | 50 | 313 | 3.5 | 7.0 | 0.00 | 0.26 | 0.00 | 57 | 1011.8 |
| 20260507084032 | 50 | 311 | 3.5 | 7.0 | 0.00 | 0.26 | 0.00 | 58 | 1011.7 |
| 20260507083532 | 50 | 329 | 4.3 | 7.0 | 0.00 | 0.26 | 0.00 | 57 | 1011.7 |
| 20260507083050 | 50 | 346 | 2.6 | 6.1 | 0.00 | 0.26 | 0.00 | 58 | 1011.6 |
| 20260507082532 | 50 | 320 | 1.7 | 6.1 | 0.00 | 0.26 | 0.00 | 59 | 1011.6 |
| 20260507082031 | 51 | 336 | 1.7 | 6.1 | 0.00 | 0.26 | 0.00 | 59 | 1011.6 |
| 20260507081544 | 51 | 355 | 3.5 | 9.6 | 0.00 | 0.26 | 0.00 | 59 | 1011.6 |
| 20260507081032 | 51 | 344 | 5.2 | 9.6 | 0.00 | 0.26 | 0.00 | 58 | 1011.5 |
| 20260507080531 | 51 | 308 | 3.5 | 9.6 | 0.00 | 0.26 | 0.00 | 59 | 1011.5 |
| 20260507080044 | 51 | 324 | 5.2 | 9.6 | 0.00 | 0.26 | 0.00 | 58 | 1011.6 |
| 20260507075532 | 51 | 332 | 4.3 | 9.6 | 0.00 | 0.26 | 0.00 | 61 | 1011.5 |
| 20260507075036 | 51 | 337 | 4.3 | 9.6 | 0.00 | 0.26 | 0.00 | 62 | 1011.5 |
| 20260507074546 | 51 | 336 | 4.3 | 7.8 | 0.00 | 0.26 | 0.00 | 64 | 1011.4 |
| 20260507074031 | 51 | 303 | 4.3 | 7.8 | 0.00 | 0.26 | 0.00 | 66 | 1011.5 |
| 20260507073532 | 51 | 321 | 3.5 | 6.1 | 0.00 | 0.26 | 0.00 | 68 | 1011.4 |
| 20260507073047 | 51 | 328 | 3.5 | 6.1 | 0.00 | 0.26 | 0.00 | 68 | 1011.5 |
| 20260507072535 | 51 | 316 | 3.5 | 7.0 | 0.00 | 0.26 | 0.00 | 68 | 1011.4 |
| 20260507072030 | 52 | 304 | 3.5 | 7.0 | 0.00 | 0.26 | 0.00 | 69 | 1011.5 |
| 20260507071545 | 52 | 356 | 2.6 | 6.1 | 0.00 | 0.26 | 0.00 | 70 | 1011.7 |
| 20260507071031 | 52 | 323 | 1.7 | 7.0 | 0.00 | 0.26 | 0.00 | 70 | 1011.7 |
| 20260507070533 | 52 | 309 | 3.5 | 7.0 | 0.00 | 0.26 | 0.00 | 69 | 1011.6 |
| 20260507070045 | 52 | 318 | 3.5 | 8.7 | 0.00 | 0.26 | 0.00 | 70 | 1011.7 |
| 20260507065531 | 52 | 295 | 5.2 | 8.7 | 0.00 | 0.26 | 0.00 | 70 | 1011.8 |
| 20260507065030 | 52 | 317 | 1.7 | 4.3 | 0.00 | 0.26 | 0.00 | 72 | 1011.9 |
| 20260507064541 | 52 | 333 | 2.6 | 5.2 | 0.00 | 0.26 | 0.00 | 72 | 1011.8 |
| 20260507064032 | 52 | 316 | 1.7 | 6.1 | 0.00 | 0.26 | 0.00 | 72 | 1011.8 |
| 20260507063531 | 52 | 12 | 2.6 | 7.0 | 0.00 | 0.26 | 0.00 | 72 | 1011.8 |
| 20260507063047 | 52 | 354 | 3.5 | 9.6 | 0.00 | 0.26 | 0.00 | 72 | 1011.6 |
| 20260507062530 | 52 | 339 | 3.5 | 9.6 | 0.00 | 0.26 | 0.00 | 71 | 1011.7 |
| 20260507062032 | 52 | 359 | 5.2 | 9.6 | 0.00 | 0.26 | 0.00 | 71 | 1011.6 |
| 20260507061546 | 52 | 306 | 4.3 | 8.7 | 0.00 | 0.26 | 0.00 | 72 | 1011.8 |
| 20260507061029 | 52 | 344 | 6.1 | 8.7 | 0.00 | 0.26 | 0.00 | 72 | 1012.0 |
| 20260507060531 | 53 | 317 | 4.3 | 7.8 | 0.00 | 0.26 | 0.00 | 72 | 1011.8 |
| 20260507060055 | 53 | 347 | 5.2 | 7.8 | 0.00 | 0.26 | 0.00 | 73 | 1011.7 |
| 20260507055534 | 53 | 304 | 4.3 | 7.8 | 0.00 | 0.26 | 0.00 | 73 | 1011.7 |
| 20260507055029 | 53 | 336 | 5.2 | 9.6 | 0.00 | 0.26 | 0.00 | 73 | 1011.6 |
| 20260507054549 | 53 | 335 | 4.3 | 9.6 | 0.00 | 0.26 | 0.00 | 73 | 1011.6 |
| 20260507054031 | 53 | 326 | 5.2 | 9.6 | 0.00 | 0.26 | 0.00 | 73 | 1011.6 |
| 20260507053530 | 53 | 329 | 4.3 | 10.4 | 0.00 | 0.26 | 0.00 | 73 | 1011.5 |
| 20260507053047 | 53 | 330 | 5.2 | 12.2 | 0.00 | 0.26 | 0.00 | 73 | 1011.5 |
| 20260507052530 | 53 | 342 | 6.1 | 12.2 | 0.00 | 0.26 | 0.00 | 73 | 1011.4 |
| 20260507052031 | 53 | 330 | 7.0 | 11.3 | 0.00 | 0.26 | 0.00 | 72 | 1011.3 |
| 20260507051542 | 53 | 328 | 4.3 | 10.4 | 0.00 | 0.26 | 0.00 | 73 | 1011.4 |
| 20260507051034 | 53 | 349 | 4.3 | 10.4 | 0.00 | 0.26 | 0.00 | 74 | 1011.2 |
| 20260507050531 | 53 | 6 | 4.3 | 8.7 | 0.00 | 0.26 | 0.00 | 74 | 1011.3 |
| 20260507050042 | 53 | 315 | 3.5 | 8.7 | 0.00 | 0.26 | 0.00 | 74 | 1011.3 |
| 20260507045530 | 53 | 330 | 5.2 | 9.6 | 0.00 | 0.26 | 0.00 | 75 | 1011.3 |
| 20260507045030 | 53 | 15 | 3.5 | 10.4 | 0.00 | 0.26 | 0.00 | 74 | 1011.5 |
| 20260507044552 | 53 | 328 | 5.2 | 10.4 | 0.00 | 0.26 | 0.00 | 74 | 1011.5 |
| 20260507044030 | 54 | 8 | 5.2 | 10.4 | 0.00 | 0.26 | 0.00 | 75 | 1011.4 |
| 20260507043530 | 54 | 314 | 4.3 | 10.4 | 0.00 | 0.26 | 0.00 | 76 | 1011.3 |
| 20260507043044 | 54 | 333 | 4.3 | 9.6 | 0.00 | 0.26 | 0.00 | 77 | 1011.2 |
| 20260507042530 | 54 | 346 | 3.5 | 7.8 | 0.00 | 0.26 | 0.00 | 78 | 1011.5 |
| 20260507042029 | 54 | 319 | 3.5 | 7.8 | 0.00 | 0.26 | 0.00 | 79 | 1011.7 |
| 20260507041544 | 54 | 345 | 3.5 | 7.8 | 0.00 | 0.26 | 0.00 | 79 | 1011.5 |
| 20260507041030 | 54 | 9 | 3.5 | 7.8 | 0.00 | 0.26 | 0.00 | 79 | 1011.5 |
| 20260507040531 | 54 | 45 | 1.7 | 7.8 | 0.00 | 0.26 | 0.00 | 80 | 1011.6 |
| 20260507040043 | 54 | 9 | 1.7 | 7.8 | 0.00 | 0.26 | 0.00 | 80 | 1011.5 |
| 20260507035527 | 54 | 353 | 2.6 | 7.8 | 0.00 | 0.26 | 0.26 | 80 | 1011.6 |
| 20260507035030 | 54 | 358 | 1.7 | 5.2 | 0.00 | 0.26 | 0.26 | 80 | 1011.8 |
| 20260507034544 | 54 | 330 | 1.7 | 7.8 | 0.00 | 0.26 | 0.26 | 80 | 1011.5 |
| 20260507034028 | 54 | 342 | 5.2 | 7.8 | 0.00 | 0.26 | 0.26 | 80 | 1011.4 |
| 20260507033530 | 54 | 322 | 3.5 | 7.0 | 0.00 | 0.26 | 0.26 | 80 | 1011.2 |
| 20260507033046 | 54 | 348 | 2.6 | 5.2 | 0.00 | 0.26 | 0.26 | 80 | 1011.1 |
| 20260507032529 | 54 | 311 | 1.7 | 4.3 | 0.00 | 0.26 | 0.26 | 80 | 1011.3 |
| 20260507032033 | 54 | 0 | 1.7 | 4.3 | 0.00 | 0.26 | 0.26 | 80 | 1011.5 |
| 20260507031546 | 54 | 0 | 0.9 | 4.3 | 0.00 | 0.26 | 0.26 | 80 | 1011.5 |
| 20260507031030 | 54 | 300 | 1.7 | 4.3 | 0.00 | 0.26 | 0.26 | 80 | 1011.3 |
| 20260507030531 | 54 | 308 | 1.7 | 7.0 | 0.00 | 0.26 | 0.26 | 81 | 1011.4 |
| 20260507030050 | 54 | 311 | 4.3 | 7.0 | 0.00 | 0.26 | 0.26 | 81 | 1011.4 |
| 20260507025530 | 54 | 313 | 3.5 | 10.4 | 0.00 | 0.26 | 0.26 | 81 | 1011.1 |
| 20260507025030 | 54 | 335 | 5.2 | 11.3 | 0.00 | 0.26 | 0.26 | 80 | 1011.2 |
| 20260507024543 | 54 | 323 | 4.3 | 12.2 | 0.00 | 0.26 | 0.26 | 81 | 1011.0 |
| 20260507024033 | 54 | 304 | 5.2 | 12.2 | 0.00 | 0.26 | 0.26 | 82 | 1011.3 |
| 20260507023611 | 55 | 307 | 5.2 | 13.9 | 0.00 | 0.26 | 0.26 | 82 | 1011.4 |
| 20260507023045 | 55 | 323 | 7.8 | 13.9 | 0.00 | 0.26 | 0.26 | 82 | 1011.1 |
| 20260507022534 | 55 | 319 | 6.1 | 8.7 | 0.00 | 0.26 | 0.26 | 82 | 1011.1 |
| 20260507022032 | 55 | 338 | 4.3 | 7.8 | 0.00 | 0.26 | 0.26 | 82 | 1011.3 |
| 20260507021543 | 55 | 339 | 4.3 | 8.7 | 0.00 | 0.26 | 0.26 | 83 | 1011.5 |
| 20260507021032 | 55 | 8 | 4.3 | 8.7 | 0.00 | 0.26 | 0.26 | 82 | 1011.5 |
| 20260507020531 | 55 | 331 | 2.6 | 7.0 | 0.00 | 0.26 | 0.26 | 83 | 1011.6 |
| 20260507020049 | 55 | 324 | 3.5 | 7.0 | 0.00 | 0.26 | 0.26 | 82 | 1011.4 |
| 20260507015534 | 56 | 335 | 4.3 | 8.7 | 0.00 | 0.26 | 0.26 | 82 | 1011.1 |
| 20260507015032 | 56 | 332 | 4.3 | 8.7 | 0.00 | 0.26 | 0.26 | 82 | 1011.1 |
| 20260507014543 | 56 | 330 | 5.2 | 7.0 | 0.00 | 0.26 | 0.26 | 83 | 1011.0 |
| 20260507014032 | 56 | 311 | 2.6 | 6.1 | 0.00 | 0.26 | 0.26 | 83 | 1011.0 |
| 20260507013536 | 56 | 333 | 3.5 | 6.1 | 0.00 | 0.26 | 0.26 | 82 | 1011.2 |
| 20260507013051 | 56 | 310 | 3.5 | 5.2 | 0.00 | 0.26 | 0.26 | 82 | 1011.1 |
| 20260507012533 | 56 | 311 | 3.5 | 7.0 | 0.00 | 0.26 | 0.26 | 81 | 1011.2 |
| 20260507012032 | 57 | 306 | 2.6 | 7.0 | 0.00 | 0.26 | 0.26 | 81 | 1011.3 |
| 20260507011545 | 57 | 302 | 3.5 | 7.0 | 0.00 | 0.26 | 0.26 | 81 | 1011.2 |
| 20260507011031 | 57 | 317 | 2.6 | 7.0 | 0.00 | 0.26 | 0.26 | 81 | 1011.2 |
| 20260507010533 | 57 | 304 | 3.5 | 6.1 | 0.00 | 0.26 | 0.26 | 81 | 1011.2 |
| 20260507010046 | 57 | 311 | 3.5 | 7.0 | 0.00 | 0.26 | 0.26 | 81 | 1011.1 |
| 20260507005533 | 58 | 330 | 4.3 | 7.0 | 0.00 | 0.26 | 0.26 | 80 | 1011.3 |
| 20260507005030 | 58 | 320 | 4.3 | 6.1 | 0.00 | 0.26 | 0.26 | 80 | 1011.4 |
| 20260507004553 | 58 | 330 | 2.6 | 7.0 | 0.00 | 0.26 | 0.26 | 81 | 1011.4 |
| 20260507004031 | 58 | 311 | 2.6 | 7.0 | 0.00 | 0.26 | 0.26 | 80 | 1011.2 |
| 20260507003531 | 58 | 306 | 4.3 | 7.0 | 0.00 | 0.26 | 0.26 | 80 | 1011.2 |
| 20260507003045 | 58 | 345 | 2.6 | 6.1 | 0.00 | 0.26 | 0.26 | 80 | 1011.2 |
| 20260507002531 | 59 | 336 | 2.6 | 7.8 | 0.00 | 0.26 | 0.26 | 79 | 1011.2 |
| 20260507002032 | 59 | 338 | 4.3 | 7.8 | 0.00 | 0.26 | 0.26 | 79 | 1010.8 |
| 20260507001544 | 59 | 320 | 3.5 | 7.8 | 0.00 | 0.26 | 0.26 | 79 | 1011.0 |
| 20260507001029 | 59 | 338 | 3.5 | 7.8 | 0.00 | 0.26 | 0.26 | 79 | 1010.8 |
| 20260507000530 | 59 | 316 | 2.6 | 7.0 | 0.00 | 0.26 | 0.26 | 79 | 1010.8 |
| 20260507000052 | 60 | 310 | 4.3 | 7.0 | 0.00 | 0.26 | 0.26 | 80 | 1010.7 |
| 20260506235531 | 60 | 328 | 2.6 | 7.0 | 0.00 | 0.26 | 0.26 | 81 | 1010.6 |
| 20260506235030 | 60 | 282 | 3.5 | 7.0 | 0.00 | 0.26 | 0.26 | 80 | 1010.7 |
| 20260506234548 | 60 | 279 | 3.5 | 7.0 | 0.00 | 0.26 | 0.26 | 80 | 1010.4 |
| 20260506234030 | 60 | 280 | 4.3 | 7.0 | 0.00 | 0.26 | 0.26 | 79 | 1010.0 |
| 20260506233529 | 60 | 288 | 4.3 | 7.0 | 0.00 | 0.26 | 0.26 | 79 | 1009.8 |
| 20260506233044 | 60 | 302 | 4.3 | 7.0 | 0.00 | 0.26 | 0.26 | 79 | 1009.3 |
| 20260506232528 | 60 | 311 | 3.5 | 7.0 | 0.00 | 0.26 | 0.26 | 79 | 1009.5 |
| 20260506232031 | 61 | 280 | 2.6 | 6.1 | 0.00 | 0.26 | 0.26 | 79 | 1009.4 |
| 20260506231543 | 61 | 277 | 2.6 | 6.1 | 0.00 | 0.26 | 0.26 | 79 | 1009.5 |
| 20260506231031 | 61 | 274 | 3.5 | 6.1 | 0.00 | 0.26 | 0.26 | 78 | 1009.4 |
| 20260506230531 | 61 | 265 | 1.7 | 5.2 | 0.00 | 0.26 | 0.26 | 78 | 1009.3 |
| 20260506230055 | 61 | 226 | 2.6 | 5.2 | 0.00 | 0.26 | 0.26 | 78 | 1009.5 |
| 20260506225529 | 61 | 216 | 2.6 | 9.6 | 0.00 | 0.26 | 0.26 | 79 | 1009.4 |
| 20260506225029 | 61 | 303 | 2.6 | 9.6 | 0.00 | 0.26 | 0.26 | 80 | 1009.3 |
| 20260506224559 | 62 | 297 | 2.6 | 9.6 | 0.00 | 0.26 | 0.26 | 81 | 1009.3 |
| 20260506224028 | 62 | 278 | 5.2 | 9.6 | 0.00 | 0.26 | 0.26 | 80 | 1009.2 |
| 20260506223529 | 62 | 278 | 5.2 | 8.7 | 0.01 | 0.26 | 0.26 | 80 | 1009.1 |
| 20260506223044 | 62 | 299 | 6.1 | 9.6 | 0.01 | 0.26 | 0.26 | 80 | 1009.1 |
| 20260506222533 | 62 | 294 | 5.2 | 9.6 | 0.01 | 0.26 | 0.26 | 80 | 1009.0 |
| 20260506222029 | 62 | 305 | 4.3 | 9.6 | 0.01 | 0.26 | 0.26 | 81 | 1009.0 |
| 20260506221542 | 62 | 278 | 5.2 | 10.4 | 0.01 | 0.26 | 0.26 | 81 | 1009.1 |
| 20260506221029 | 63 | 270 | 5.2 | 10.4 | 0.01 | 0.26 | 0.26 | 82 | 1009.0 |
| 20260506220529 | 63 | 314 | 3.5 | 7.8 | 0.01 | 0.26 | 0.26 | 85 | 1008.7 |
| 20260506220044 | 63 | 276 | 3.5 | 6.1 | 0.01 | 0.26 | 0.26 | 85 | 1008.8 |
| 20260506215532 | 63 | 255 | 2.6 | 5.2 | 0.01 | 0.26 | 0.26 | 86 | 1008.7 |
| 20260506215029 | 63 | 266 | 2.6 | 4.3 | 0.01 | 0.26 | 0.26 | 87 | 1008.7 |
| 20260506214604 | 63 | 271 | 2.6 | 7.8 | 0.01 | 0.26 | 0.26 | 87 | 1008.8 |
| 20260506214028 | 63 | 277 | 2.6 | 7.8 | 0.01 | 0.26 | 0.26 | 87 | 1008.6 |
| 20260506213528 | 64 | 260 | 4.3 | 9.6 | 0.00 | 0.25 | 0.25 | 86 | 1008.5 |
| 20260506213046 | 64 | 281 | 3.5 | 9.6 | 0.00 | 0.25 | 0.25 | 86 | 1008.3 |
| 20260506212529 | 64 | 281 | 5.2 | 9.6 | 0.00 | 0.25 | 0.25 | 87 | 1008.3 |
| 20260506212033 | 64 | 200 | 3.5 | 8.7 | 0.00 | 0.25 | 0.25 | 87 | 1007.9 |
| 20260506211543 | 65 | 219 | 2.6 | 6.1 | 0.00 | 0.25 | 0.25 | 87 | 1008.0 |
| 20260506211029 | 65 | 236 | 3.5 | 7.8 | 0.00 | 0.25 | 0.25 | 88 | 1007.8 |
| 20260506210530 | 65 | 242 | 3.5 | 7.8 | 0.00 | 0.25 | 0.25 | 88 | 1007.8 |
| 20260506210044 | 65 | 224 | 4.3 | 7.8 | 0.00 | 0.25 | 0.25 | 87 | 1007.7 |
| 20260506205532 | 65 | 184 | 3.5 | 5.2 | 0.00 | 0.25 | 0.25 | 87 | 1007.6 |
| 20260506205029 | 65 | 229 | 1.7 | 5.2 | 0.00 | 0.25 | 0.25 | 88 | 1007.7 |
| 20260506204539 | 65 | 233 | 2.6 | 5.2 | 0.00 | 0.25 | 0.25 | 87 | 1007.7 |
| 20260506204029 | 66 | 247 | 2.6 | 7.0 | 0.00 | 0.25 | 0.25 | 87 | 1007.6 |
| 20260506203531 | 66 | 248 | 3.5 | 7.0 | 0.00 | 0.25 | 0.25 | 86 | 1007.6 |
| 20260506203047 | 66 | 224 | 1.7 | 5.2 | 0.00 | 0.25 | 0.25 | 87 | 1007.6 |
| 20260506202534 | 66 | 254 | 2.6 | 5.2 | 0.00 | 0.25 | 0.25 | 87 | 1007.7 |
| 20260506202029 | 66 | 238 | 2.6 | 5.2 | 0.00 | 0.25 | 0.25 | 87 | 1007.5 |
| 20260506201545 | 66 | 193 | 2.6 | 5.2 | 0.00 | 0.25 | 0.25 | 88 | 1007.5 |
| 20260506201030 | 66 | 207 | 4.3 | 7.0 | 0.00 | 0.25 | 0.25 | 88 | 1007.5 |
| 20260506200531 | 66 | 198 | 4.3 | 7.0 | 0.00 | 0.25 | 0.25 | 88 | 1007.5 |
| 20260506200044 | 66 | 219 | 2.6 | 6.1 | 0.00 | 0.25 | 0.25 | 88 | 1007.5 |
| 20260506195529 | 66 | 277 | 3.5 | 6.1 | 0.00 | 0.25 | 0.25 | 88 | 1007.7 |
| 20260506195031 | 66 | 193 | 2.6 | 6.1 | 0.00 | 0.25 | 0.25 | 90 | 1007.6 |
| 20260506194557 | 65 | 249 | 0.9 | 6.1 | 0.00 | 0.25 | 0.25 | 92 | 1007.6 |
| 20260506194030 | 65 | 205 | 2.6 | 6.1 | 0.00 | 0.25 | 0.25 | 91 | 1007.7 |
| 20260506193536 | 65 | 229 | 2.6 | 5.2 | 0.00 | 0.25 | 0.25 | 91 | 1007.7 |
| 20260506193045 | 65 | 207 | 2.6 | 5.2 | 0.00 | 0.25 | 0.25 | 91 | 1007.6 |
| 20260506192528 | 65 | 174 | 2.6 | 5.2 | 0.00 | 0.25 | 0.25 | 92 | 1007.6 |
| 20260506192032 | 65 | 233 | 3.5 | 5.2 | 0.00 | 0.25 | 0.25 | 91 | 1007.7 |
| 20260506191551 | 65 | 219 | 2.6 | 5.2 | 0.00 | 0.25 | 0.25 | 92 | 1007.7 |
| 20260506191033 | 64 | 188 | 1.7 | 4.3 | 0.00 | 0.25 | 0.25 | 93 | 1007.7 |
| 20260506190535 | 64 | 217 | 2.6 | 4.3 | 0.00 | 0.25 | 0.25 | 93 | 1007.6 |
| 20260506190046 | 64 | 250 | 1.7 | 3.5 | 0.01 | 0.25 | 0.25 | 94 | 1007.7 |
| 20260506185531 | 63 | 146 | 1.7 | 3.5 | 0.02 | 0.25 | 0.25 | 94 | 1007.9 |
| 20260506185030 | 63 | 200 | 1.7 | 3.5 | 0.03 | 0.25 | 0.25 | 94 | 1007.8 |
| 20260506184553 | 63 | 205 | 1.7 | 3.5 | 0.04 | 0.25 | 0.25 | 94 | 1008.0 |
| 20260506184032 | 63 | 221 | 0.9 | 2.6 | 0.05 | 0.25 | 0.25 | 94 | 1008.0 |
| 20260506183532 | 63 | 234 | 0.0 | 2.6 | 0.05 | 0.25 | 0.25 | 94 | 1008.0 |
| 20260506183059 | 62 | 0 | 0.9 | 2.6 | 0.05 | 0.25 | 0.25 | 94 | 1008.1 |
| 20260506182531 | 62 | 271 | 0.0 | 2.6 | 0.05 | 0.25 | 0.25 | 94 | 1008.2 |
| 20260506182028 | 62 | 0 | 0.9 | 4.3 | 0.05 | 0.25 | 0.25 | 93 | 1008.2 |
| 20260506181549 | 62 | 282 | 1.7 | 4.3 | 0.05 | 0.25 | 0.25 | 93 | 1008.2 |
| 20260506181031 | 62 | 273 | 2.6 | 4.3 | 0.05 | 0.25 | 0.25 | 93 | 1008.1 |
| 20260506180532 | 62 | 245 | 1.7 | 7.0 | 0.05 | 0.25 | 0.25 | 92 | 1008.1 |
| 20260506180050 | 63 | 228 | 2.6 | 7.8 | 0.04 | 0.24 | 0.24 | 92 | 1008.1 |
| 20260506175536 | 63 | 250 | 3.5 | 7.8 | 0.03 | 0.23 | 0.23 | 91 | 1008.2 |
| 20260506175030 | 63 | 198 | 3.5 | 6.1 | 0.02 | 0.22 | 0.22 | 90 | 1008.1 |
| 20260506174543 | 63 | 241 | 2.6 | 7.0 | 0.01 | 0.21 | 0.21 | 89 | 1008.2 |
| 20260506174032 | 63 | 251 | 3.5 | 7.0 | 0.00 | 0.20 | 0.20 | 88 | 1008.1 |
| 20260506173531 | 64 | 221 | 3.5 | 7.0 | 0.00 | 0.20 | 0.20 | 88 | 1008.0 |
| 20260506173050 | 64 | 207 | 3.5 | 7.8 | 0.00 | 0.20 | 0.20 | 87 | 1008.0 |
| 20260506172532 | 63 | 210 | 4.3 | 7.8 | 0.00 | 0.20 | 0.20 | 88 | 1008.0 |
| 20260506172030 | 63 | 220 | 4.3 | 9.6 | 0.00 | 0.20 | 0.20 | 88 | 1008.0 |
| 20260506171556 | 63 | 183 | 6.1 | 9.6 | 0.00 | 0.20 | 0.20 | 88 | 1007.9 |
| 20260506171028 | 63 | 203 | 3.5 | 7.8 | 0.00 | 0.20 | 0.20 | 88 | 1008.0 |
| 20260506170533 | 63 | 212 | 4.3 | 9.6 | 0.00 | 0.20 | 0.20 | 88 | 1007.9 |
| 20260506170056 | 63 | 217 | 5.2 | 9.6 | 0.00 | 0.20 | 0.20 | 88 | 1008.0 |
| 20260506165528 | 63 | 228 | 5.2 | 8.7 | 0.00 | 0.20 | 0.20 | 88 | 1007.9 |
| 20260506165035 | 63 | 246 | 5.2 | 10.4 | 0.00 | 0.20 | 0.20 | 88 | 1007.9 |
| 20260506164545 | 63 | 211 | 6.1 | 10.4 | 0.00 | 0.20 | 0.20 | 89 | 1008.0 |
| 20260506164034 | 63 | 191 | 3.5 | 8.7 | 0.00 | 0.20 | 0.20 | 89 | 1008.0 |
| 20260506163529 | 62 | 206 | 4.3 | 9.6 | 0.00 | 0.20 | 0.20 | 90 | 1008.0 |
| 20260506163044 | 62 | 216 | 5.2 | 9.6 | 0.00 | 0.20 | 0.20 | 90 | 1007.9 |
| 20260506162532 | 62 | 203 | 6.1 | 13.9 | 0.00 | 0.20 | 0.20 | 90 | 1007.8 |
| 20260506162033 | 62 | 172 | 6.1 | 13.9 | 0.00 | 0.20 | 0.20 | 90 | 1007.9 |
| 20260506161544 | 62 | 173 | 5.2 | 13.9 | 0.00 | 0.20 | 0.20 | 90 | 1007.9 |
| 20260506161031 | 62 | 176 | 7.0 | 10.4 | 0.00 | 0.20 | 0.20 | 90 | 1007.9 |
| 20260506160531 | 62 | 193 | 5.2 | 12.2 | 0.00 | 0.20 | 0.20 | 90 | 1007.8 |
| 20260506160044 | 62 | 218 | 5.2 | 12.2 | 0.00 | 0.20 | 0.20 | 90 | 1008.1 |
| 20260506155531 | 62 | 159 | 6.1 | 12.2 | 0.00 | 0.20 | 0.20 | 90 | 1007.9 |
| 20260506155030 | 61 | 169 | 6.1 | 12.2 | 0.00 | 0.20 | 0.20 | 90 | 1007.8 |
| 20260506154556 | 61 | 161 | 7.0 | 12.2 | 0.00 | 0.20 | 0.20 | 91 | 1007.9 |
| 20260506154028 | 61 | 173 | 6.1 | 10.4 | 0.00 | 0.20 | 0.20 | 92 | 1007.9 |
| 20260506153527 | 61 | 197 | 6.1 | 16.5 | 0.00 | 0.20 | 0.20 | 92 | 1007.9 |
| 20260506153047 | 61 | 155 | 6.1 | 16.5 | 0.00 | 0.20 | 0.20 | 92 | 1007.8 |
| 20260506152532 | 61 | 148 | 7.0 | 11.3 | 0.01 | 0.20 | 0.20 | 93 | 1007.8 |
| 20260506152031 | 61 | 183 | 5.2 | 10.4 | 0.02 | 0.20 | 0.20 | 93 | 1007.9 |
| 20260506151545 | 60 | 140 | 5.2 | 13.0 | 0.03 | 0.20 | 0.20 | 93 | 1007.8 |